Location: Arrakis Observatory
(44.1122°N, 95.7153°W)
Time: 18:09:46
(UTC-06:00)

Amateur Radio Satellites - All Passes

Search period start: 22 November 2017 17:39
Search period end: 23 November 2017 17:39
Location: Arrakis Observatory, 44.1122°N, 95.7153°W

Satellite Date Start Highest point End Downlink Frequencies (MHz)
Time Altitude Azimuth
XW-2C 22 Nov 17:51:42 17:55:24 62° 260° (W) 17:59:07 145.795 - 145.815
LilacSat-2 22 Nov 17:55:48 17:59:27 51° 260° (W) 18:03:09 437.200
XW-2F 22 Nov 18:00:57 18:04:34 51° 260° (W) 18:08:13 145.980 - 146.000
CUBEBUG 2 22 Nov 18:08:53 18:12:47 29° 68° (ENE) 18:16:36 437.445
KKS-1 22 Nov 18:25:53 18:30:04 40° 290° (WNW) 18:34:12 437.445
KAITUO 1B 22 Nov 18:26:20 18:29:39 32° 263° (W) 18:33:01 145.475/437.950
NO-84 22 Nov 18:28:50 18:31:39 18° 0° (N) 18:34:33 435.350 FM
CUTE 1.7 + AOD 2 22 Nov 18:31:15 18:35:26 80° 76° (ENE) 18:39:40 437.475
RS-15 22 Nov 18:31:28 18:43:28 63° 115° (ESE) 18:55:26 29.354- 29.394
XW-2A 22 Nov 18:31:37 18:34:05 20° 68° (ENE) 18:36:33 145.665 - 145.685
CUTE-I 22 Nov 18:34:55 18:39:52 37° 263° (W) 18:44:52 437.470
YUBILEINY 22 Nov 18:35:10 18:42:09 27° 279° (W) 18:49:07 435.215
STRAND 1 22 Nov 18:36:24 18:38:52 13° 89° (E) 18:41:20 437.568
STARS 22 Nov 18:45:12 18:49:33 60° 287° (WNW) 18:53:50 437.465
XW-2D 22 Nov 18:47:07 18:49:11 14° 269° (W) 18:51:14 145.860 - 145.880
ZACube-1 22 Nov 18:49:19 18:52:41 23° 67° (ENE) 18:56:01 437.345
SEEDS 22 Nov 18:58:29 19:02:38 85° 258° (WSW) 19:06:52 437.485
AAUSAT CUBESAT 2 22 Nov 19:00:21 19:04:15 43° 72° (ENE) 19:08:13 437.432
UWE-3 22 Nov 19:01:42 19:06:03 57° 73° (ENE) 19:10:16 435.000/436.395/437.385
HO-68 22 Nov 19:02:05 19:09:09 60° 258° (WSW) 19:16:18 435.675
NUDT-PHONESAT 22 Nov 19:10:39 19:11:42 11° 270° (W) 19:12:45 437.300
AO-73 22 Nov 19:38:14 19:42:28 66° 75° (ENE) 19:46:39 145.935
CUBEBUG 2 22 Nov 19:45:20 19:49:20 29° 264° (W) 19:53:15 437.445
Oscar 11 22 Nov 19:52:39 19:56:53 64° 74° (ENE) 20:01:10 .
Max Valier Satellite 22 Nov 20:02:58 20:03:35 10° 62° (ENE) 20:04:14 145.860
XW-2A 22 Nov 20:03:57 20:06:39 23° 265° (W) 20:09:22 145.665 - 145.685
NO-84 22 Nov 20:06:28 20:10:05 27° 21° (NNE) 20:13:46 435.350 FM
nSIGHT-1 22 Nov 20:10:46 20:13:38 30° 139° (SE) 20:16:29 .
STRAND 1 22 Nov 20:13:30 20:18:39 78° 285° (WNW) 20:23:43 437.568
FO-29 22 Nov 20:17:05 20:24:22 40° 94° (E) 20:31:11 435.910
SO-50 22 Nov 20:22:02 20:23:05 11° 107° (ESE) 20:24:08 436.795
ZACube-1 22 Nov 20:24:52 20:28:48 34° 263° (W) 20:32:40 437.345
AAUSAT CUBESAT 2 22 Nov 20:37:15 20:39:55 17° 269° (W) 20:42:37 437.432
UWE-3 22 Nov 20:40:26 20:42:48 14° 269° (W) 20:45:09 435.000/436.395/437.385
RS-15 22 Nov 20:44:35 20:56:28 51° 320° (NW) 21:08:14 29.354- 29.394
DELFI C3 22 Nov 20:49:40 20:53:32 54° 74° (ENE) 20:57:27 145.870
ISS 22 Nov 21:00:00 21:03:16 70° 145° (SE) 21:06:32 437.550
AO-73 22 Nov 21:17:36 21:19:07 12° 271° (W) 21:20:37 145.935
EO-88 22 Nov 21:27:22 21:30:58 75° 76° (ENE) 21:34:36 145.990 - 145.960
Oscar 11 22 Nov 21:31:39 21:33:27 12° 271° (W) 21:35:15 .
Max Valier Satellite 22 Nov 21:33:16 21:36:53 62° 259° (W) 21:40:31 145.860
NO-84 22 Nov 21:43:35 21:47:50 82° 222° (SW) 21:52:06 435.350 FM
nSIGHT-1 22 Nov 21:46:41 21:49:47 42° 336° (NNW) 21:52:52 .
LO-87 22 Nov 21:47:21 21:49:41 17° 66° (ENE) 21:52:00 145.935 - 145.965
STRAND 1 22 Nov 21:55:17 21:56:56 12° 304° (NW) 21:58:35 437.568
SO-50 22 Nov 21:58:19 22:02:47 88° 297° (WNW) 22:07:21 436.795
FO-29 22 Nov 22:01:58 22:09:26 49° 294° (WNW) 22:16:30 435.910
O/OREOS (USA 219) 22 Nov 22:10:51 22:14:47 27° 56° (ENE) 22:18:40 437.305
UNISAT 6 22 Nov 22:16:11 22:20:29 77° 104° (ESE) 22:24:43 437.425
TIGRISAT 22 Nov 22:20:01 22:24:18 77° 101° (E) 22:28:32 435.000
DELFI C3 22 Nov 22:26:54 22:28:37 12° 270° (W) 22:30:21 145.870
ISS 22 Nov 22:37:04 22:39:58 28° 344° (NNW) 22:42:52 437.550
PRISM 22 Nov 22:41:41 22:45:45 48° 100° (E) 22:49:46 437.425
ESTCUBE 1 22 Nov 22:57:08 23:01:36 81° 74° (ENE) 23:06:07 437.505/2401.250
RS-15 22 Nov 23:02:43 23:12:49 28° 352° (N) 23:22:38 29.354- 29.394
VELOX 1 22 Nov 23:10:42 23:13:55 20° 64° (ENE) 23:17:10 145.980
EO-79 22 Nov 23:18:13 23:20:26 14° 90° (E) 23:22:38 145.935-145.965
LO-87 22 Nov 23:19:29 23:22:49 34° 262° (W) 23:26:09 145.935 - 145.965
NANOSAT C BR1 22 Nov 23:20:24 23:22:21 13° 90° (E) 23:24:17 145.865
NO-84 22 Nov 23:22:32 23:24:37 13° 237° (WSW) 23:26:41 435.350 FM
nSIGHT-1 22 Nov 23:24:02 23:26:34 21° 356° (N) 23:29:06 .
POLYITAN 1 22 Nov 23:33:19 23:36:27 20° 93° (E) 23:39:34 437.675
SO-50 22 Nov 23:41:04 23:43:56 16° 325° (NW) 23:46:49 436.795
AIST 2D 22 Nov 23:43:20 23:46:53 88° 103° (ESE) 23:50:25 435.315
FO-29 22 Nov 23:50:02 23:52:34 12° 314° (NW) 23:55:04 435.910
O/OREOS (USA 219) 22 Nov 23:50:07 23:54:13 33° 255° (WSW) 23:58:15 437.305
DX 1 22 Nov 23:51:30 23:53:31 13° 60° (ENE) 23:55:34 434.975-435.025
SPROUT 22 Nov 23:52:05 23:56:22 77° 76° (ENE) 00:00:40 437.525
PCSat 22 Nov 23:54:10 23:59:22 50° 114° (ESE) 00:04:36 145.827
UNISAT 6 22 Nov 23:55:09 23:56:33 11° 300° (WNW) 23:57:58 437.425
QB50P2 22 Nov 23:56:11 00:00:09 40° 98° (E) 00:04:06 145.880/145.840
TIGRISAT 22 Nov 23:58:59 00:00:22 11° 300° (WNW) 00:01:43 435.000
ISS 23 Nov 00:14:31 00:17:08 22° 5° (N) 00:19:45 437.550
PRISM 23 Nov 00:17:58 00:20:37 17° 297° (WNW) 00:23:17 437.425
UKube-1 23 Nov 00:28:15 00:31:18 19° 64° (ENE) 00:34:23 .
50 SAT 23 Nov 00:33:28 00:36:17 28° 70° (ENE) 00:39:07 437.505
ESTCUBE 1 23 Nov 00:38:16 00:38:58 10° 272° (W) 00:39:41 437.505/2401.250
DUCHIFAT 1 23 Nov 00:42:30 00:46:42 90° 265° (W) 00:50:51 145.980
VELOX 1 23 Nov 00:45:48 00:50:03 44° 261° (W) 00:54:20 145.980
EO-79 23 Nov 00:52:25 00:56:31 53° 287° (WNW) 01:00:35 145.935-145.965
NANOSAT C BR1 23 Nov 00:54:17 00:58:25 58° 287° (WNW) 01:02:29 145.865
nSIGHT-1 23 Nov 01:00:37 01:03:29 28° 16° (NNE) 01:06:19 .
POLYITAN 1 23 Nov 01:08:29 01:12:20 36° 290° (WNW) 01:16:10 437.675
RS-15 23 Nov 01:19:09 01:30:02 36° 27° (NNE) 01:40:22 29.354- 29.394
DX 1 23 Nov 01:24:45 01:29:07 72° 257° (WSW) 01:33:31 434.975-435.025
Oscar 19 23 Nov 01:26:13 01:30:58 36° 97° (E) 01:35:43 437.125/150
BUGSAT 1 23 Nov 01:27:18 01:31:21 69° 102° (ESE) 01:35:19 437.445
SPROUT 23 Nov 01:32:23 01:32:46 10° 272° (W) 01:33:09 437.525
QB50P2 23 Nov 01:32:37 01:35:40 20° 295° (WNW) 01:38:41 145.880/145.840
BEESAT 3 23 Nov 01:33:45 01:36:12 16° 111° (ESE) 01:38:40 437.485
PCSat 23 Nov 01:38:18 01:43:00 29° 314° (NW) 01:47:44 145.827
ISS 23 Nov 01:50:59 01:54:11 46° 25° (NNE) 01:57:20 437.550
UKube-1 23 Nov 02:02:52 02:07:00 44° 260° (W) 02:11:10 .
50 SAT 23 Nov 02:06:26 02:08:25 15° 267° (W) 02:10:25 437.505
Gurwin Techsat 1B 23 Nov 02:07:05 02:12:23 61° 101° (ESE) 02:17:38 435.225
BEESAT 23 Nov 02:07:28 02:11:39 31° 67° (ENE) 02:15:50 436.000
MOZHAYETS 4 23 Nov 02:11:44 02:15:59 40° 70° (ENE) 02:20:16
ITUPSAT 1 23 Nov 02:18:17 02:22:41 38° 69° (ENE) 02:27:07 437.325
M-CUBED/EXP-1 PRIME 23 Nov 02:25:55 02:29:16 20° 98° (E) 02:32:38 437.505
CUBESAT XI-V 23 Nov 02:30:18 02:33:08 16° 62° (ENE) 02:36:00 437.345
nSIGHT-1 23 Nov 02:36:44 02:39:55 64° 215° (SW) 02:43:04 .
BEESAT 2 23 Nov 02:48:56 02:52:23 28° 115° (ESE) 02:55:52 435.950
AO-7 23 Nov 03:00:54 03:08:07 31° 95° (E) 03:15:17 .
BUGSAT 1 23 Nov 03:04:44 03:06:07 12° 299° (WNW) 03:07:30 437.445
Oscar 19 23 Nov 03:05:42 03:10:11 31° 294° (WNW) 03:14:40 437.125/150
BEESAT 3 23 Nov 03:09:25 03:13:19 52° 308° (NW) 03:17:16 437.485
AO-85 23 Nov 03:16:24 03:19:13 19° 112° (ESE) 03:22:07 145.980
ITAMSAT 1 23 Nov 03:23:23 03:27:46 27° 95° (E) 03:32:06 435.822/435.867
ISS 23 Nov 03:27:42 03:30:32 27° 222° (SW) 03:33:20 437.550
RS-15 23 Nov 03:32:23 03:44:23 86° 55° (NE) 03:55:41 29.354- 29.394
BEESAT 23 Nov 03:45:10 03:49:22 31° 264° (W) 03:53:37 436.000
Gurwin Techsat 1B 23 Nov 03:48:03 03:51:52 20° 299° (WNW) 03:55:39 435.225
YUBILEINY 23 Nov 03:48:33 03:53:01 15° 73° (ENE) 03:57:29 435.215
KKS-1 23 Nov 03:49:15 03:52:52 24° 65° (ENE) 03:56:30 437.445
MOZHAYETS 4 23 Nov 03:49:48 03:53:18 21° 267° (W) 03:56:48
ITUPSAT 1 23 Nov 03:56:41 04:00:36 25° 265° (W) 04:04:32 437.325
M-CUBED/EXP-1 PRIME 23 Nov 03:59:24 04:03:49 50° 293° (WNW) 04:08:18 437.505
CUBESAT XI-V 23 Nov 04:05:30 04:10:02 60° 260° (W) 04:14:37 437.345
STARS 23 Nov 04:08:25 04:11:11 16° 62° (ENE) 04:13:57 437.465
BEESAT 2 23 Nov 04:26:23 04:30:01 32° 313° (NW) 04:33:41 435.950
SO-50 23 Nov 04:48:14 04:51:47 21° 39° (NE) 04:55:22 436.795
DOVE 4 23 Nov 04:48:15 04:52:55 33° 95° (E) 04:57:20 437.250
AO-7 23 Nov 04:53:08 05:01:20 64° 295° (WNW) 05:09:33 .
AO-85 23 Nov 04:55:34 04:59:16 41° 311° (NW) 05:03:11 145.980
ITAMSAT 1 23 Nov 05:02:28 05:07:20 41° 292° (WNW) 05:12:10 435.822/435.867
XW-2C 23 Nov 05:24:13 05:25:46 12° 90° (E) 05:27:19 145.795 - 145.815
KKS-1 23 Nov 05:25:07 05:29:13 36° 262° (W) 05:33:23 437.445
LilacSat-2 23 Nov 05:28:21 05:30:36 15° 92° (E) 05:32:50 437.200
XW-2F 23 Nov 05:32:24 05:34:28 14° 91° (E) 05:36:32 145.980 - 146.000
YUBILEINY 23 Nov 05:39:28 05:48:11 76° 94° (E) 05:57:00 435.215
STARS 23 Nov 05:42:43 05:47:04 56° 259° (W) 05:51:27 437.465
RS-15 23 Nov 05:46:16 05:55:17 27° 259° (W) 06:03:59 29.354- 29.394
STRAND 1 23 Nov 05:52:59 05:57:04 24° 63° (ENE) 06:01:09 437.568
KAITUO 1B 23 Nov 05:55:47 05:58:39 20° 94° (E) 06:01:31 145.475/437.950
XW-2D 23 Nov 06:15:49 06:19:32 50° 99° (E) 06:23:16 145.860 - 145.880
CUTE 1.7 + AOD 2 23 Nov 06:16:13 06:18:07 13° 89° (E) 06:20:00 437.475
DOVE 4 23 Nov 06:25:56 06:30:31 32° 293° (WNW) 06:34:52 437.250
SO-50 23 Nov 06:28:03 06:32:40 67° 238° (WSW) 06:37:20 436.795
HO-68 23 Nov 06:28:40 06:34:29 26° 93° (E) 06:40:15 435.675
XW-2B 23 Nov 06:30:40 06:34:29 74° 102° (ESE) 06:38:18 145.730 - 145.750
FO-29 23 Nov 06:31:31 06:36:41 22° 55° (NE) 06:42:09 435.910
NUDT-PHONESAT 23 Nov 06:35:53 06:39:34 58° 100° (E) 06:43:14 437.300
SEEDS 23 Nov 06:41:52 06:44:17 15° 90° (E) 06:46:42 437.485
AO-7 23 Nov 06:47:44 06:52:31 17° 316° (NW) 06:57:19 .
CUTE-I 23 Nov 06:49:46 06:55:11 78° 104° (ESE) 07:00:31 437.470
XW-2C 23 Nov 06:56:31 07:00:14 51° 286° (WNW) 07:03:57 145.795 - 145.815
PCSat 23 Nov 06:58:28 07:01:05 13° 32° (NNE) 07:03:41 145.827
LilacSat-2 23 Nov 07:01:24 07:05:03 42° 288° (WNW) 07:08:42 437.200
XW-2F 23 Nov 07:05:10 07:08:47 43° 287° (WNW) 07:12:24 145.980 - 146.000
XW-2A 23 Nov 07:23:50 07:26:04 17° 93° (E) 07:28:18 145.665 - 145.685
AO-73 23 Nov 07:27:06 07:27:52 10° 89° (E) 07:28:37 145.935
KAITUO 1B 23 Nov 07:29:20 07:32:39 29° 290° (WNW) 07:35:57 145.475/437.950
STRAND 1 23 Nov 07:31:00 07:35:57 47° 260° (W) 07:40:56 437.568
CUBEBUG 2 23 Nov 07:33:54 07:37:57 49° 99° (E) 07:41:58 437.445
YUBILEINY 23 Nov 07:38:54 07:45:56 26° 296° (WNW) 07:53:03 435.215
Oscar 11 23 Nov 07:40:55 07:41:48 11° 88° (E) 07:42:42 .
CUTE 1.7 + AOD 2 23 Nov 07:50:06 07:54:20 62° 286° (WNW) 07:58:33 437.475
XW-2D 23 Nov 07:51:23 07:53:17 14° 296° (WNW) 07:55:12 145.860 - 145.880
ZACube-1 23 Nov 08:11:01 08:14:52 37° 97° (E) 08:18:45 437.345
NUDT-PHONESAT 23 Nov 08:11:41 08:12:55 11° 297° (WNW) 08:14:10 437.300
FO-29 23 Nov 08:13:55 08:20:41 85° 256° (WSW) 08:28:18 435.910
HO-68 23 Nov 08:15:36 08:22:42 65° 291° (WNW) 08:29:46 435.675
AAUSAT CUBESAT 2 23 Nov 08:15:43 08:19:55 68° 101° (E) 08:24:04 437.432
SEEDS 23 Nov 08:16:07 08:20:16 52° 287° (WNW) 08:24:24 437.485
UWE-3 23 Nov 08:25:49 08:29:58 78° 285° (WNW) 08:34:07 435.000/436.395/437.385
CUTE-I 23 Nov 08:31:17 08:34:34 17° 302° (WNW) 08:37:49 437.470
PCSat 23 Nov 08:40:22 08:45:43 56° 54° (NE) 08:51:02 145.827
XW-2A 23 Nov 08:55:52 08:58:48 28° 289° (WNW) 09:01:44 145.665 - 145.685
FALCONSAT 3 23 Nov 08:59:08 09:00:38 12° 161° (SSE) 09:02:08 435.103
AO-73 23 Nov 09:00:25 09:04:33 70° 285° (WNW) 09:08:42 145.935
Max Valier Satellite 23 Nov 09:03:56 09:04:31 10° 90° (E) 09:05:07 145.860
CUBEBUG 2 23 Nov 09:11:38 09:14:11 16° 297° (WNW) 09:16:41 437.445
Oscar 11 23 Nov 09:14:07 09:18:26 75° 286° (WNW) 09:22:46 .
UNISAT 6 23 Nov 09:15:47 09:20:20 80° 75° (ENE) 09:24:49 437.425
TIGRISAT 23 Nov 09:19:28 09:24:02 80° 74° (ENE) 09:28:29 435.000
PRISM 23 Nov 09:31:56 09:35:48 41° 70° (ENE) 09:39:44 437.425
BEESAT 3 23 Nov 09:47:45 09:50:36 19° 40° (NE) 09:53:25 437.485
ZACube-1 23 Nov 09:47:52 09:50:56 20° 294° (WNW) 09:54:00 437.345
AAUSAT CUBESAT 2 23 Nov 09:53:00 09:54:47 13° 299° (WNW) 09:56:36 437.432
DELFI C3 23 Nov 09:59:18 10:03:19 74° 103° (ESE) 10:07:16 145.870
FO-29 23 Nov 10:02:51 10:06:55 16° 277° (W) 10:11:14 435.910
HO-68 23 Nov 10:05:30 10:09:06 15° 312° (NW) 10:12:41 435.675
EO-79 23 Nov 10:12:19 10:14:32 14° 62° (ENE) 10:16:44 145.935-145.965
NANOSAT C BR1 23 Nov 10:14:13 10:16:09 13° 61° (ENE) 10:18:05 145.865
AIST 2D 23 Nov 10:18:40 10:21:51 35° 72° (ENE) 10:25:04 435.315
PCSat 23 Nov 10:24:31 10:28:43 23° 253° (WSW) 10:32:53 145.827
POLYITAN 1 23 Nov 10:27:20 10:30:24 20° 65° (ENE) 10:33:27 437.675
EO-88 23 Nov 10:27:40 10:31:20 80° 102° (ESE) 10:34:59 145.990 - 145.960
Max Valier Satellite 23 Nov 10:35:04 10:38:40 55° 286° (WNW) 10:42:16 145.860
FALCONSAT 3 23 Nov 10:36:12 10:39:01 21° 175° (S) 10:41:50 435.103
LO-87 23 Nov 10:45:23 10:47:30 15° 92° (E) 10:49:37 145.935 - 145.965
ESTCUBE 1 23 Nov 10:49:14 10:51:56 15° 91° (E) 10:54:37 437.505/2401.250
QB50P2 23 Nov 10:49:52 10:53:45 36° 70° (ENE) 10:57:38 145.880/145.840
UNISAT 6 23 Nov 10:56:33 10:57:33 11° 272° (W) 10:58:33 437.425
TIGRISAT 23 Nov 11:00:13 11:01:13 11° 272° (W) 11:02:13 435.000
BEESAT 2 23 Nov 11:04:36 11:08:12 29° 46° (NE) 11:11:44 435.950
PRISM 23 Nov 11:08:24 11:11:15 18° 267° (W) 11:14:06 437.425
BEESAT 3 23 Nov 11:24:35 11:28:27 55° 240° (WSW) 11:32:15 437.485
DUCHIFAT 1 23 Nov 11:35:04 11:39:16 79° 75° (ENE) 11:43:29 145.980
DELFI C3 23 Nov 11:36:29 11:37:26 11° 299° (WNW) 11:38:23 145.870
SPROUT 23 Nov 11:38:19 11:39:42 11° 89° (E) 11:41:03 437.525
AO-85 23 Nov 11:44:04 11:48:18 34° 47° (NE) 11:52:49 145.980
EO-79 23 Nov 11:45:36 11:49:47 61° 259° (WSW) 11:54:00 145.935-145.965
NANOSAT C BR1 23 Nov 11:47:07 11:51:19 67° 258° (WSW) 11:55:32 145.865
Gurwin Techsat 1B 23 Nov 11:52:21 11:55:40 17° 59° (ENE) 11:59:00 435.225
AIST 2D 23 Nov 11:53:19 11:55:10 14° 268° (W) 11:57:03 435.315
POLYITAN 1 23 Nov 12:01:53 12:05:54 40° 262° (W) 12:09:54 437.675
AO-7 23 Nov 12:14:55 12:18:20 13° 39° (NE) 12:21:45 .
FALCONSAT 3 23 Nov 12:14:55 12:17:28 18° 191° (S) 12:20:02 435.103
BUGSAT 1 23 Nov 12:17:47 12:21:53 57° 73° (ENE) 12:25:58 437.445
LO-87 23 Nov 12:17:48 12:21:02 34° 289° (WNW) 12:24:15 145.935 - 145.965
ESTCUBE 1 23 Nov 12:24:37 12:29:04 56° 287° (WNW) 12:33:30 437.505/2401.250
O/OREOS (USA 219) 23 Nov 12:25:06 12:28:41 23° 102° (ESE) 12:32:17 437.305
QB50P2 23 Nov 12:26:24 12:29:37 21° 266° (W) 12:32:52 145.880/145.840
VELOX 1 23 Nov 12:34:12 12:38:07 29° 96° (E) 12:42:00 145.980
BEESAT 2 23 Nov 12:42:20 12:45:52 30° 245° (WSW) 12:49:22 435.950
Oscar 19 23 Nov 12:44:23 12:49:24 61° 72° (ENE) 12:54:28 437.125/150
SPROUT 23 Nov 13:11:48 13:16:02 68° 286° (WNW) 13:20:13 437.525
DX 1 23 Nov 13:12:21 13:15:16 17° 92° (E) 13:18:09 434.975-435.025
M-CUBED/EXP-1 PRIME 23 Nov 13:12:54 13:15:57 24° 60° (ENE) 13:19:11 437.505
50 SAT 23 Nov 13:21:10 13:23:32 19° 95° (E) 13:25:52 437.505
AO-85 23 Nov 13:24:24 13:28:44 36° 243° (WSW) 13:33:20 145.980
Gurwin Techsat 1B 23 Nov 13:29:41 13:35:00 75° 257° (WSW) 13:40:21 435.225
UKube-1 23 Nov 13:48:25 13:52:02 25° 95° (E) 13:55:37 .
BUGSAT 1 23 Nov 13:55:35 13:57:34 13° 269° (W) 13:59:34 437.445
AO-7 23 Nov 14:01:17 14:09:09 50° 62° (ENE) 14:17:03 .
O/OREOS (USA 219) 23 Nov 14:03:31 14:07:50 40° 300° (WNW) 14:12:12 437.305
VELOX 1 23 Nov 14:10:39 14:14:29 29° 293° (WNW) 14:18:17 145.980
Oscar 19 23 Nov 14:25:48 14:29:08 17° 269° (W) 14:32:30 437.125/150
NO-84 23 Nov 14:36:09 14:39:39 53° 136° (SE) 14:43:29 435.350 FM
ITAMSAT 1 23 Nov 14:42:28 14:47:29 48° 69° (ENE) 14:52:31 435.822/435.867
M-CUBED/EXP-1 PRIME 23 Nov 14:47:08 14:50:15 27° 260° (W) 14:53:35 437.505
DX 1 23 Nov 14:47:28 14:51:41 47° 289° (WNW) 14:55:52 434.975-435.025
50 SAT 23 Nov 14:52:59 14:55:34 22° 291° (WNW) 14:58:07 437.505
UKube-1 23 Nov 15:24:12 15:28:03 31° 292° (WNW) 15:31:51 .
MOZHAYETS 4 23 Nov 15:41:39 15:46:16 78° 104° (ESE) 15:50:50
BEESAT 23 Nov 15:42:51 15:47:33 58° 101° (E) 15:52:13 436.000
YUBILEINY 23 Nov 15:48:00 15:56:15 41° 71° (ENE) 16:04:25 435.215
DOVE 4 23 Nov 15:54:10 15:58:53 39° 69° (ENE) 16:03:48 437.250
ITUPSAT 1 23 Nov 15:54:20 15:59:07 74° 103° (ESE) 16:03:52 437.325
AO-7 23 Nov 15:54:22 16:02:02 41° 261° (W) 16:09:45 .
CUBESAT XI-V 23 Nov 16:00:31 16:04:39 30° 95° (E) 16:08:46 437.345
NO-84 23 Nov 16:13:47 16:17:11 31° 336° (NNW) 16:20:50 435.350 FM
ITAMSAT 1 23 Nov 16:23:05 16:27:10 23° 267° (W) 16:31:17 435.822/435.867
CUTE-I 23 Nov 16:34:51 16:38:52 22° 61° (ENE) 16:42:54 437.470
KAITUO 1B 23 Nov 16:38:16 16:39:52 12° 63° (ENE) 16:41:29 145.475/437.950
XW-2D 23 Nov 16:58:23 17:01:39 29° 70° (ENE) 17:04:56 145.860 - 145.880
HO-68 23 Nov 16:59:39 17:05:10 25° 56° (NE) 17:10:41 435.675
CUTE 1.7 + AOD 2 23 Nov 17:11:09 17:12:36 12° 61° (ENE) 17:14:02 437.475
XW-2B 23 Nov 17:13:00 17:16:32 41° 72° (ENE) 17:20:05 145.730 - 145.750
KKS-1 23 Nov 17:14:08 17:18:16 36° 98° (E) 17:22:22 437.445
NUDT-PHONESAT 23 Nov 17:16:10 17:19:24 31° 70° (ENE) 17:22:39 437.300
MOZHAYETS 4 23 Nov 17:20:45 17:22:46 13° 300° (WNW) 17:24:48
BEESAT 23 Nov 17:21:42 17:24:52 18° 299° (WNW) 17:28:01 436.000
STARS 23 Nov 17:30:56 17:34:24 22° 94° (E) 17:37:50 437.465
ITUPSAT 1 23 Nov 17:33:46 17:36:21 15° 301° (WNW) 17:38:55 437.325
SEEDS 23 Nov 17:35:39 17:37:35 13° 62° (ENE) 17:39:31 437.485
